Sitka, AK

7:50 AM AKDT on October 17, 2017 (GMT -0800)
Sitka Rocky Gutierrez

Weather History for PASI - March, 2013

Change the Weather History Date:

Wednesday, March 13, 2013

  Actual Average Record
Temperature  
Mean Temperature 32 °F -  
Max Temperature 34 °F 42 °F 68 °F (2016)
Min Temperature 28 °F 33 °F 12 °F (2006)
Degree Days  
Heating Degree Days 34    
Moisture  
Dew Point 24 °F    
Average Humidity 76    
Maximum Humidity 96    
Minimum Humidity 61    
Precipitation  
Precipitation 0.00 in - - ()
Sea Level Pressure  
Sea Level Pressure 29.82 in    
Wind  
Wind Speed 5 mph (NE)    
Max Wind Speed 15 mph    
Max Gust Speed 20 mph    
Visibility 8 miles    
Events Snow    
Averages and records for this station are not official NWS values.
T = Trace of Precipitation, MM = Missing Value Source: NWS Daily Summary

Daily Weather History Graph

Daily Weather History Graph

Search for Another Location

Airport or City:

Trip Planner

Search our weather history database for the weather conditions in past years. The results will help you decide how hot, cold, wet, or windy it might be!

Date:

Astronomy

Mar. 13, 2013 Rise Set
Actual Time 7:21 AM AKDT 7:01 PM AKDT
Civil Twilight 6:43 AM AKDT 7:39 PM AKDT
Nautical Twilight 5:58 AM AKDT 8:24 PM AKDT
Astronomical Twilight 5:12 AM AKDT 9:11 PM AKDT
Moon 7:34 AM AKDT (3/13) 10:04 PM AKDT (3/13)
Length of Visible Light 12h 56m
Length of Day
11h 40m
Waxing Crescent, 4% of the Moon is Illuminated
Mar 13
Waxing Crescent
Mar 19
First Quarter
Mar 27
Full
Apr 2
Last Quarter
Apr 10
New

Hourly Weather History & Observations

Time (AKDT) Temp. Windchill Dew Point Humidity Pressure Visibility Wind Dir Wind Speed Gust Speed Precip Events Conditions
12:53 AM 32.0 °F 27.5 °F 21.9 °F 66% 29.72 in 10.0 mi NNE 4.6 mph - 0.00 in   Overcast
1:53 AM 30.9 °F 27.5 °F 21.0 °F 67% 29.73 in 10.0 mi ENE 3.5 mph - N/A   Overcast
2:53 AM 30.9 °F 24.3 °F 19.9 °F 64% 29.73 in 10.0 mi East 6.9 mph - N/A   Overcast
3:53 AM 30.9 °F 25.2 °F 19.0 °F 61% 29.74 in 10.0 mi Variable 5.8 mph - N/A   Overcast
4:53 AM 30.9 °F 25.2 °F 19.9 °F 64% 29.74 in 10.0 mi ENE 5.8 mph - N/A   Overcast
5:53 AM 30.0 °F 22.4 °F 19.0 °F 64% 29.75 in 10.0 mi East 8.1 mph - N/A   Overcast
6:53 AM 30.0 °F 24.1 °F 19.0 °F 64% 29.75 in 10.0 mi East 5.8 mph - N/A   Overcast
7:53 AM 30.0 °F 23.2 °F 19.0 °F 64% 29.76 in 10.0 mi East 6.9 mph - N/A   Overcast
8:53 AM 30.0 °F 24.1 °F 19.9 °F 66% 29.78 in 10.0 mi East 5.8 mph - 0.00 in   Mostly Cloudy
9:53 AM 30.9 °F 24.3 °F 21.0 °F 67% 29.80 in 10.0 mi East 6.9 mph - N/A   Overcast
10:53 AM 32.0 °F 24.8 °F 19.9 °F 61% 29.81 in 9.0 mi ESE 8.1 mph - N/A   Overcast
11:53 AM 32.0 °F - 24.1 °F 73% 29.83 in 10.0 mi Calm Calm - N/A   Overcast
12:53 PM 32.0 °F 21.6 °F 19.9 °F 61% 29.85 in 8.0 mi ESE 15.0 mph 19.6 mph 0.00 in Snow Light Snow
1:53 PM 33.1 °F 27.7 °F 24.1 °F 70% 29.86 in 7.0 mi NNW 5.8 mph - 0.00 in   Overcast
2:53 PM 32.0 °F 24.2 °F 24.1 °F 73% 29.86 in 9.0 mi NW 9.2 mph - 0.00 in   Overcast
3:53 PM 32.0 °F 25.6 °F 26.1 °F 79% 29.85 in 10.0 mi NNW 6.9 mph - 0.00 in   Overcast
4:53 PM 33.1 °F 26.1 °F 26.1 °F 75% 29.86 in 10.0 mi WNW 8.1 mph - N/A   Overcast
5:07 PM 32.0 °F 26.4 °F 24.8 °F 75% 29.86 in 0.8 mi ESE 5.8 mph - 0.00 in Snow Light Snow
5:23 PM 30.2 °F 26.7 °F 24.8 °F 80% 29.86 in 0.5 mi SE 3.5 mph - 0.00 in Snow Snow
5:34 PM 30.2 °F - 26.6 °F 86% 29.85 in 2.0 mi Calm Calm - 0.00 in Snow Light Snow
5:42 PM 30.2 °F 21.3 °F 26.6 °F 86% 29.86 in 6.0 mi NW 10.4 mph - 0.00 in Snow Light Snow
5:53 PM 30.9 °F 22.8 °F 28.0 °F 89% 29.85 in 3.0 mi NNW 9.2 mph - 0.00 in Snow Light Snow
6:53 PM 30.9 °F 27.5 °F 27.0 °F 85% 29.85 in 10.0 mi Variable 3.5 mph - 0.00 in   Overcast
7:53 PM 32.0 °F - 27.0 °F 82% 29.86 in 10.0 mi Calm Calm - N/A   Overcast
8:53 PM 32.0 °F - 28.0 °F 85% 29.86 in 10.0 mi Calm Calm - N/A   Mostly Cloudy
9:53 PM 30.9 °F - 28.0 °F 89% 29.87 in 10.0 mi Calm Calm - N/A   Overcast
10:07 PM 30.2 °F 26.7 °F 28.4 °F 93% 29.86 in 2.5 mi NNE 3.5 mph - 0.00 in Snow Snow
10:15 PM 30.2 °F 26.7 °F 28.4 °F 93% 29.86 in 1.5 mi North 3.5 mph - 0.00 in Snow Snow
10:19 PM 30.2 °F - 28.4 °F 93% 29.86 in 3.0 mi Calm Calm - 0.00 in Snow Light Snow
10:53 PM 32.0 °F 28.7 °F 28.9 °F 88% 29.86 in 10.0 mi West 3.5 mph - 0.00 in   Partly Cloudy
11:53 PM 28.9 °F 25.2 °F 28.0 °F 96% 29.86 in 10.0 mi East 3.5 mph - N/A   Clear